Time,TemperatureF,DewpointF,PressureIn,WindDirection,WindDirectionDegrees,WindSpeedMPH,WindSpeedGustMPH,Humidity,HourlyPrecipIn,Conditions,Clouds,dailyrainin,SoftwareType,DateUTC
2013-03-24 00:03:00,0.7,-11.0,31.58,SW,225,0.0,0.0,57,0.00,,,0.00,meteohub,2013-03-24 06:03:00,
2013-03-24 00:09:00,-0.4,-12.3,31.58,SW,225,0.0,0.0,56,0.00,,,0.00,meteohub,2013-03-24 06:09:00,
2013-03-24 00:15:00,-0.9,-12.8,31.58,SW,225,0.0,0.0,56,0.00,,,0.00,meteohub,2013-03-24 06:15:00,
2013-03-24 00:20:00,-1.3,-13.2,31.58,SW,225,0.0,0.0,56,0.00,,,0.00,meteohub,2013-03-24 06:20:00,
2013-03-24 00:25:00,-1.8,-13.7,31.58,SW,225,0.0,0.0,56,0.00,,,0.00,meteohub,2013-03-24 06:25:00,
2013-03-24 00:31:00,-2.4,-14.3,31.58,SW,225,0.0,0.0,56,0.00,,,0.00,meteohub,2013-03-24 06:31:00,
2013-03-24 00:36:00,-2.7,-14.6,31.58,North,0,0.0,0.0,56,0.00,,,0.00,meteohub,2013-03-24 06:36:00,
2013-03-24 00:42:00,-2.7,-14.6,31.58,SW,225,0.0,0.0,56,0.00,,,0.00,meteohub,2013-03-24 06:42:00,
2013-03-24 00:47:00,-2.9,-14.8,31.58,SW,225,0.0,0.0,56,0.00,,,0.00,meteohub,2013-03-24 06:47:00,
2013-03-24 00:52:00,-3.3,-15.0,31.58,SW,225,0.0,0.0,56,0.00,,,0.00,meteohub,2013-03-24 06:52:00,
2013-03-24 00:57:00,-3.5,-15.2,31.58,SW,225,0.0,0.0,56,0.00,,,0.00,meteohub,2013-03-24 06:57:00,
2013-03-24 01:02:00,-3.6,-15.3,31.58,SW,225,0.0,0.0,56,0.00,,,0.00,meteohub,2013-03-24 07:02:00,
2013-03-24 01:07:00,-4.0,-15.7,31.58,SW,225,0.0,0.0,56,0.00,,,0.00,meteohub,2013-03-24 07:07:00,
2013-03-24 01:12:00,-4.4,-16.1,31.57,SW,225,0.0,0.0,56,0.00,,,0.00,meteohub,2013-03-24 07:12:00,
2013-03-24 01:17:00,-4.5,-16.2,31.58,North,0,0.0,0.0,56,0.00,,,0.00,meteohub,2013-03-24 07:17:00,
2013-03-24 01:22:00,-4.4,-15.7,31.57,South,180,0.0,0.0,57,0.00,,,0.00,meteohub,2013-03-24 07:22:00,
2013-03-24 01:27:00,-4.4,-15.7,31.58,SW,225,0.0,0.0,57,0.00,,,0.00,meteohub,2013-03-24 07:27:00,
2013-03-24 01:32:00,-4.7,-16.4,31.58,South,180,0.0,0.0,56,0.00,,,0.00,meteohub,2013-03-24 07:32:00,
2013-03-24 01:38:00,-4.9,-16.6,31.58,North,0,0.0,0.0,56,0.00,,,0.00,meteohub,2013-03-24 07:38:00,
2013-03-24 01:44:00,-4.9,-16.6,31.58,SW,225,0.0,0.0,56,0.00,,,0.00,meteohub,2013-03-24 07:44:00,
2013-03-24 01:49:00,-4.9,-16.2,31.58,SW,225,0.0,0.0,57,0.00,,,0.00,meteohub,2013-03-24 07:49:00,
2013-03-24 01:55:00,-5.3,-17.0,31.57,WSW,248,0.0,0.0,56,0.00,,,0.00,meteohub,2013-03-24 07:55:00,
2013-03-24 02:01:00,-5.8,-17.5,31.58,NW,315,0.0,0.0,56,0.00,,,0.00,meteohub,2013-03-24 08:01:00,
2013-03-24 02:06:00,-5.8,-17.5,31.57,NW,315,0.0,0.0,56,0.00,,,0.00,meteohub,2013-03-24 08:06:00,
2013-03-24 02:12:00,-6.2,-17.5,31.58,NW,315,0.0,0.0,57,0.00,,,0.00,meteohub,2013-03-24 08:12:00,
2013-03-24 02:17:00,-5.8,-17.5,31.57,West,270,0.0,0.0,56,0.00,,,0.00,meteohub,2013-03-24 08:17:00,
2013-03-24 02:22:00,-5.8,-17.5,31.57,NW,315,0.0,0.0,56,0.00,,,0.00,meteohub,2013-03-24 08:22:00,
2013-03-24 02:27:00,-5.6,-17.3,31.57,NW,315,0.0,0.0,56,0.00,,,0.00,meteohub,2013-03-24 08:27:00,
2013-03-24 02:32:00,-5.8,-17.5,31.57,NW,315,0.0,0.0,56,0.00,,,0.00,meteohub,2013-03-24 08:32:00,
2013-03-24 02:37:00,-5.8,-17.5,31.57,West,270,0.0,0.0,56,0.00,,,0.00,meteohub,2013-03-24 08:37:00,
2013-03-24 02:42:00,-6.0,-17.3,31.57,North,0,0.0,0.0,57,0.00,,,0.00,meteohub,2013-03-24 08:42:00,
2013-03-24 02:47:00,-6.5,-17.7,31.57,West,270,0.0,0.0,57,0.00,,,0.00,meteohub,2013-03-24 08:47:00,
2013-03-24 02:52:00,-6.9,-18.4,31.57,SW,225,0.0,0.0,56,0.00,,,0.00,meteohub,2013-03-24 08:52:00,
2013-03-24 02:57:00,-7.4,-18.9,31.57,SW,225,0.0,0.0,56,0.00,,,0.00,meteohub,2013-03-24 08:57:00,
2013-03-24 03:02:00,-8.0,-20.9,31.57,NW,315,0.0,0.0,52,0.00,,,0.00,meteohub,2013-03-24 09:02:00,
2013-03-24 03:07:00,-8.3,-21.6,31.57,SW,225,0.0,0.0,51,0.00,,,0.00,meteohub,2013-03-24 09:07:00,
2013-03-24 03:12:00,-8.9,-22.2,31.57,SW,225,0.0,0.0,51,0.00,,,0.00,meteohub,2013-03-24 09:12:00,
2013-03-24 03:17:00,-8.9,-22.2,31.56,SW,225,0.0,0.0,51,0.00,,,0.00,meteohub,2013-03-24 09:17:00,
2013-03-24 03:22:00,-8.9,-22.2,31.56,SW,225,0.0,0.0,51,0.00,,,0.00,meteohub,2013-03-24 09:22:00,
2013-03-24 03:27:00,-9.0,-22.4,31.56,SW,225,0.0,0.0,51,0.00,,,0.00,meteohub,2013-03-24 09:27:00,
2013-03-24 03:33:00,-9.0,-22.4,31.56,SW,225,0.0,0.0,51,0.00,,,0.00,meteohub,2013-03-24 09:33:00,
2013-03-24 03:38:00,-9.0,-22.4,31.56,West,270,0.0,0.0,51,0.00,,,0.00,meteohub,2013-03-24 09:38:00,
2013-03-24 03:43:00,-9.2,-22.4,31.56,West,270,0.0,0.0,51,0.00,,,0.00,meteohub,2013-03-24 09:43:00,
2013-03-24 03:49:00,-9.0,-22.4,31.56,SW,225,0.0,0.0,51,0.00,,,0.00,meteohub,2013-03-24 09:49:00,
2013-03-24 03:55:00,-9.2,-22.4,31.55,NW,315,0.0,0.0,51,0.00,,,0.00,meteohub,2013-03-24 09:55:00,
2013-03-24 04:01:00,-8.9,-21.8,31.55,South,180,0.0,0.0,52,0.00,,,0.00,meteohub,2013-03-24 10:01:00,
2013-03-24 04:06:00,-8.9,-21.8,31.55,South,180,0.0,0.0,52,0.00,,,0.00,meteohub,2013-03-24 10:06:00,
2013-03-24 04:12:00,-9.6,-22.4,31.55,West,270,0.0,0.0,52,0.00,,,0.00,meteohub,2013-03-24 10:12:00,
2013-03-24 04:17:00,-9.2,-22.0,31.55,SW,225,0.0,0.0,52,0.00,,,0.00,meteohub,2013-03-24 10:17:00,
2013-03-24 04:23:00,-9.4,-22.2,31.55,SW,225,0.0,0.0,52,0.00,,,0.00,meteohub,2013-03-24 10:23:00,
2013-03-24 04:29:00,-9.6,-22.4,31.55,South,180,0.0,0.0,52,0.00,,,0.00,meteohub,2013-03-24 10:29:00,
2013-03-24 04:34:00,-9.8,-22.5,31.55,NW,315,0.0,0.0,52,0.00,,,0.00,meteohub,2013-03-24 10:34:00,
2013-03-24 04:40:00,-9.6,-22.4,31.55,South,180,0.0,0.0,52,0.00,,,0.00,meteohub,2013-03-24 10:40:00,
2013-03-24 04:45:00,-10.1,-22.9,31.55,South,180,0.0,0.0,52,0.00,,,0.00,meteohub,2013-03-24 10:45:00,
2013-03-24 04:50:00,-10.5,-23.3,31.55,West,270,0.0,0.0,52,0.00,,,0.00,meteohub,2013-03-24 10:50:00,
2013-03-24 04:55:00,-10.5,-23.3,31.55,West,270,0.0,0.0,52,0.00,,,0.00,meteohub,2013-03-24 10:55:00,
2013-03-24 05:01:00,-10.8,-23.6,31.55,West,270,0.0,0.0,52,0.00,,,0.00,meteohub,2013-03-24 11:01:00,
2013-03-24 05:07:00,-10.8,-23.6,31.55,SW,225,0.0,0.0,52,0.00,,,0.00,meteohub,2013-03-24 11:07:00,
2013-03-24 05:12:00,-11.2,-24.3,31.55,SE,135,0.0,0.0,51,0.00,,,0.00,meteohub,2013-03-24 11:12:00,
2013-03-24 05:17:00,-11.2,-24.3,31.55,SW,225,0.0,0.0,51,0.00,,,0.00,meteohub,2013-03-24 11:17:00,
2013-03-24 05:22:00,-11.2,-24.3,31.55,SW,225,0.0,0.0,51,0.00,,,0.00,meteohub,2013-03-24 11:22:00,
2013-03-24 05:27:00,-11.0,-23.8,31.55,West,270,0.0,0.0,52,0.00,,,0.00,meteohub,2013-03-24 11:27:00,
2013-03-24 05:32:00,-11.0,-23.8,31.55,SW,225,0.0,0.0,52,0.00,,,0.00,meteohub,2013-03-24 11:32:00,
2013-03-24 05:37:00,-10.5,-23.3,31.55,West,270,0.0,0.0,52,0.00,,,0.00,meteohub,2013-03-24 11:37:00,
2013-03-24 05:43:00,-10.1,-22.9,31.55,NW,315,0.0,0.0,52,0.00,,,0.00,meteohub,2013-03-24 11:43:00,
2013-03-24 05:48:00,-9.9,-22.7,31.55,SW,225,0.0,0.0,52,0.00,,,0.00,meteohub,2013-03-24 11:48:00,
2013-03-24 05:54:00,-10.1,-22.9,31.55,SW,225,0.0,0.0,52,0.00,,,0.00,meteohub,2013-03-24 11:54:00,
2013-03-24 05:59:00,-10.3,-23.1,31.55,West,270,0.0,0.0,52,0.00,,,0.00,meteohub,2013-03-24 11:59:00,
2013-03-24 06:05:00,-10.1,-22.9,31.55,SW,225,0.0,0.0,52,0.00,,,0.00,meteohub,2013-03-24 12:05:00,
2013-03-24 06:11:00,-10.1,-22.9,31.55,SW,225,0.0,0.0,52,0.00,,,0.00,meteohub,2013-03-24 12:11:00,
2013-03-24 06:16:00,-9.9,-22.7,31.55,SW,225,0.0,0.0,52,0.00,,,0.00,meteohub,2013-03-24 12:16:00,
2013-03-24 06:22:00,-9.8,-22.5,31.55,SW,225,0.0,0.0,52,0.00,,,0.00,meteohub,2013-03-24 12:22:00,
2013-03-24 06:27:00,-9.8,-22.5,31.55,NW,315,0.0,0.0,52,0.00,,,0.00,meteohub,2013-03-24 12:27:00,
2013-03-24 06:32:00,-9.8,-22.5,31.55,South,180,0.0,0.0,52,0.00,,,0.00,meteohub,2013-03-24 12:32:00,
2013-03-24 06:37:00,-9.8,-22.5,31.55,NW,315,0.0,0.0,52,0.00,,,0.00,meteohub,2013-03-24 12:37:00,
2013-03-24 06:42:00,-9.8,-22.5,31.55,SW,225,0.0,0.0,52,0.00,,,0.00,meteohub,2013-03-24 12:42:00,
2013-03-24 06:47:00,-9.9,-22.7,31.55,SE,135,0.0,0.0,52,0.00,,,0.00,meteohub,2013-03-24 12:47:00,
2013-03-24 06:52:00,-10.3,-23.1,31.55,West,270,0.0,0.0,52,0.00,,,0.00,meteohub,2013-03-24 12:52:00,
2013-03-24 06:57:00,-10.5,-23.3,31.55,SW,225,0.0,0.0,52,0.00,,,0.00,meteohub,2013-03-24 12:57:00,
2013-03-24 07:03:00,-10.7,-23.4,31.55,SW,225,0.0,0.0,52,0.00,,,0.00,meteohub,2013-03-24 13:03:00,
2013-03-24 07:08:00,-10.7,-23.4,31.55,SW,225,0.0,0.0,52,0.00,,,0.00,meteohub,2013-03-24 13:08:00,
2013-03-24 07:14:00,-10.7,-23.4,31.55,SW,225,0.0,0.0,52,0.00,,,0.00,meteohub,2013-03-24 13:14:00,
2013-03-24 07:20:00,-10.5,-23.3,31.55,SW,225,0.0,0.0,52,0.00,,,0.00,meteohub,2013-03-24 13:20:00,
2013-03-24 07:25:00,-10.3,-23.1,31.55,SW,225,0.0,0.0,52,0.00,,,0.00,meteohub,2013-03-24 13:25:00,
2013-03-24 07:31:00,-9.8,-22.5,31.55,NW,315,0.0,0.0,52,0.00,,,0.00,meteohub,2013-03-24 13:31:00,
2013-03-24 07:37:00,-9.2,-22.4,31.55,NW,315,0.0,0.0,51,0.00,,,0.00,meteohub,2013-03-24 13:37:00,
2013-03-24 07:42:00,-8.7,-21.6,31.55,South,180,0.0,0.0,52,0.00,,,0.00,meteohub,2013-03-24 13:42:00,
2013-03-24 07:47:00,-8.0,-20.9,31.55,NW,315,0.0,0.0,52,0.00,,,0.00,meteohub,2013-03-24 13:47:00,
2013-03-24 07:53:00,-7.1,-18.6,31.55,South,180,0.0,0.0,56,0.00,,,0.00,meteohub,2013-03-24 13:53:00,
2013-03-24 07:58:00,-5.8,-17.5,31.55,South,180,0.0,0.0,56,0.00,,,0.00,meteohub,2013-03-24 13:58:00,
2013-03-24 08:04:00,-5.4,-17.1,31.55,North,0,0.0,0.0,56,0.00,,,0.00,meteohub,2013-03-24 14:04:00,
2013-03-24 08:10:00,-3.3,-15.0,31.55,East,90,0.0,0.0,56,0.00,,,0.00,meteohub,2013-03-24 14:10:00,
2013-03-24 08:15:00,-2.6,-14.4,31.55,East,90,0.0,0.0,56,0.00,,,0.00,meteohub,2013-03-24 14:15:00,
2013-03-24 08:20:00,-2.0,-13.9,31.55,East,90,0.0,0.0,56,0.00,,,0.00,meteohub,2013-03-24 14:20:00,
2013-03-24 08:26:00,-0.9,-12.8,31.55,East,90,0.0,0.0,56,0.00,,,0.00,meteohub,2013-03-24 14:26:00,
2013-03-24 08:32:00,-0.2,-12.5,31.55,SE,135,0.0,0.0,55,0.00,,,0.00,meteohub,2013-03-24 14:32:00,
2013-03-24 08:37:00,0.1,-12.3,31.55,NE,45,0.0,0.0,55,0.00,,,0.00,meteohub,2013-03-24 14:37:00,
2013-03-24 08:42:00,1.4,-9.2,31.55,NE,45,0.0,0.0,60,0.00,,,0.00,meteohub,2013-03-24 14:42:00,
2013-03-24 08:47:00,2.7,-8.1,31.55,East,90,0.0,0.0,60,0.00,,,0.00,meteohub,2013-03-24 14:47:00,
2013-03-24 08:52:00,3.6,-7.2,31.55,East,90,0.0,0.0,60,0.00,,,0.00,meteohub,2013-03-24 14:52:00,
2013-03-24 08:57:00,4.1,-7.1,31.55,SE,135,0.0,0.0,59,0.00,,,0.00,meteohub,2013-03-24 14:57:00,
2013-03-24 09:02:00,4.5,-6.7,31.55,NE,45,3.0,0.0,59,0.00,,,0.00,meteohub,2013-03-24 15:02:00,
2013-03-24 09:07:00,4.8,-6.7,31.55,South,180,0.0,3.0,58,0.00,,,0.00,meteohub,2013-03-24 15:07:00,
2013-03-24 09:12:00,5.7,-6.2,31.55,NE,45,0.0,3.0,57,0.00,,,0.00,meteohub,2013-03-24 15:12:00,
2013-03-24 09:17:00,6.1,-5.8,31.54,East,90,0.0,3.0,57,0.00,,,0.00,meteohub,2013-03-24 15:17:00,
2013-03-24 09:22:00,7.7,-4.7,31.54,SE,135,2.0,3.0,56,0.00,,,0.00,meteohub,2013-03-24 15:22:00,
2013-03-24 09:27:00,8.8,-4.5,31.55,SE,135,0.0,4.0,54,0.00,,,0.00,meteohub,2013-03-24 15:27:00,
2013-03-24 09:32:00,9.5,-4.2,31.54,East,90,2.0,4.0,53,0.00,,,0.00,meteohub,2013-03-24 15:32:00,
2013-03-24 09:37:00,10.0,-4.0,31.54,SE,135,4.0,4.0,52,0.00,,,0.00,meteohub,2013-03-24 15:37:00,
2013-03-24 09:42:00,10.8,-2.2,31.54,SE,135,1.0,4.0,55,0.00,,,0.00,meteohub,2013-03-24 15:42:00,
2013-03-24 09:47:00,12.6,-1.7,31.54,NE,45,4.0,4.0,52,0.00,,,0.00,meteohub,2013-03-24 15:47:00,
2013-03-24 09:53:00,13.3,-1.8,31.54,North,0,2.0,4.0,50,0.00,,,0.00,meteohub,2013-03-24 15:53:00,
2013-03-24 09:58:00,14.2,-1.8,31.54,East,90,3.0,4.0,48,0.00,,,0.00,meteohub,2013-03-24 15:58:00,
2013-03-24 10:03:00,14.4,-2.2,31.54,East,90,2.0,4.0,47,0.00,,,0.00,meteohub,2013-03-24 16:03:00,
2013-03-24 10:08:00,14.7,-2.7,31.54,East,90,2.0,3.0,45,0.00,,,0.00,meteohub,2013-03-24 16:08:00,
2013-03-24 10:14:00,14.9,-3.6,31.54,East,90,3.0,3.0,43,0.00,,,0.00,meteohub,2013-03-24 16:14:00,
2013-03-24 10:20:00,16.0,-3.1,31.53,South,180,4.0,4.0,42,0.00,,,0.00,meteohub,2013-03-24 16:20:00,
2013-03-24 10:25:00,16.3,-3.8,31.53,SW,225,4.0,4.0,40,0.00,,,0.00,meteohub,2013-03-24 16:25:00,
2013-03-24 10:31:00,17.1,-6.5,31.54,NW,315,6.0,8.0,34,0.00,,,0.00,meteohub,2013-03-24 16:31:00,
2013-03-24 10:36:00,17.8,-8.5,31.54,West,270,4.0,8.0,30,0.00,,,0.00,meteohub,2013-03-24 16:36:00,
2013-03-24 10:42:00,18.3,-10.1,31.54,West,270,7.0,8.0,27,0.00,,,0.00,meteohub,2013-03-24 16:42:00,
2013-03-24 10:47:00,18.1,-11.7,31.54,SW,225,8.0,8.0,25,0.00,,,0.00,meteohub,2013-03-24 16:47:00,
2013-03-24 10:52:00,18.5,-12.3,31.53,West,270,4.0,8.0,24,0.00,,,0.00,meteohub,2013-03-24 16:52:00,
2013-03-24 10:57:00,19.2,-10.8,31.54,NW,315,9.0,10.0,25,0.00,,,0.00,meteohub,2013-03-24 16:57:00,
2013-03-24 11:03:00,18.9,-11.9,31.54,West,270,7.0,10.0,24,0.00,,,0.00,meteohub,2013-03-24 17:03:00,
2013-03-24 11:08:00,19.6,-8.3,31.54,NE,45,8.0,11.0,28,0.00,,,0.00,meteohub,2013-03-24 17:08:00,
2013-03-24 11:13:00,20.3,-7.6,31.54,North,0,5.0,11.0,28,0.00,,,0.00,meteohub,2013-03-24 17:13:00,
2013-03-24 11:18:00,19.8,-8.1,31.54,West,270,8.0,11.0,28,0.00,,,0.00,meteohub,2013-03-24 17:18:00,
2013-03-24 11:24:00,20.3,-7.6,31.54,North,0,11.0,11.0,28,0.00,,,0.00,meteohub,2013-03-24 17:24:00,
2013-03-24 11:30:00,19.4,-9.2,31.54,West,270,11.0,11.0,27,0.00,,,0.00,meteohub,2013-03-24 17:30:00,
2013-03-24 11:35:00,17.8,-13.7,31.54,NE,45,5.0,12.0,23,0.00,,,0.00,meteohub,2013-03-24 17:35:00,
2013-03-24 11:41:00,17.8,-13.7,31.54,West,270,10.0,12.0,23,0.00,,,0.00,meteohub,2013-03-24 17:41:00,
2013-03-24 11:46:00,18.0,-12.8,31.54,West,270,11.0,13.0,24,0.00,,,0.00,meteohub,2013-03-24 17:46:00,
2013-03-24 11:52:00,18.5,-12.3,31.54,NW,315,4.0,13.0,24,0.00,,,0.00,meteohub,2013-03-24 17:52:00,
2013-03-24 11:57:00,18.5,-12.3,31.54,West,270,8.0,13.0,24,0.00,,,0.00,meteohub,2013-03-24 17:57:00,
2013-03-24 12:03:00,18.5,-12.3,31.53,SW,225,8.0,13.0,24,0.00,,,0.00,meteohub,2013-03-24 18:03:00,
2013-03-24 12:08:00,20.1,-7.8,31.53,NW,315,6.0,13.0,28,0.00,,,0.00,meteohub,2013-03-24 18:08:00,
2013-03-24 12:14:00,20.1,-7.8,31.53,NW,315,4.0,13.0,28,0.00,,,0.00,meteohub,2013-03-24 18:14:00,
2013-03-24 12:19:00,19.9,-8.0,31.54,West,270,8.0,10.0,28,0.00,,,0.00,meteohub,2013-03-24 18:19:00,
2013-03-24 12:25:00,19.4,-8.3,31.53,West,270,11.0,11.0,28,0.00,,,0.00,meteohub,2013-03-24 18:25:00,
2013-03-24 12:31:00,19.9,-8.0,31.54,West,270,8.0,11.0,28,0.00,,,0.00,meteohub,2013-03-24 18:31:00,
2013-03-24 12:37:00,20.3,-7.6,31.54,NW,315,12.0,14.0,28,0.00,,,0.00,meteohub,2013-03-24 18:37:00,
2013-03-24 12:42:00,20.3,-7.6,31.53,NW,315,4.0,14.0,28,0.00,,,0.00,meteohub,2013-03-24 18:42:00,
2013-03-24 12:47:00,20.8,-7.1,31.53,SW,225,5.0,14.0,28,0.00,,,0.00,meteohub,2013-03-24 18:47:00,
2013-03-24 12:52:00,21.6,-7.2,31.53,West,270,6.0,12.0,27,0.00,,,0.00,meteohub,2013-03-24 18:52:00,
2013-03-24 12:57:00,22.3,-6.7,31.53,West,270,7.0,10.0,27,0.00,,,0.00,meteohub,2013-03-24 18:57:00,
2013-03-24 13:03:00,23.0,-7.6,31.53,West,270,6.0,11.0,25,0.00,,,0.00,meteohub,2013-03-24 19:03:00,
2013-03-24 13:09:00,22.6,-7.1,31.53,West,270,8.0,11.0,26,0.00,,,0.00,meteohub,2013-03-24 19:09:00,
2013-03-24 13:14:00,21.7,-8.0,31.53,West,270,2.0,11.0,26,0.00,,,0.00,meteohub,2013-03-24 19:14:00,
2013-03-24 13:20:00,22.8,-6.9,31.53,WSW,248,5.0,15.0,26,0.00,,,0.00,meteohub,2013-03-24 19:20:00,
2013-03-24 13:25:00,23.2,-7.4,31.53,NW,315,12.0,15.0,25,0.00,,,0.00,meteohub,2013-03-24 19:25:00,
2013-03-24 13:30:00,22.5,-8.1,31.53,West,270,11.0,15.0,25,0.00,,,0.00,meteohub,2013-03-24 19:30:00,
2013-03-24 13:36:00,23.5,-8.0,31.53,NW,315,8.0,15.0,24,0.00,,,0.00,meteohub,2013-03-24 19:36:00,
2013-03-24 13:42:00,22.3,-8.1,31.53,NW,315,11.0,14.0,25,0.00,,,0.00,meteohub,2013-03-24 19:42:00,
2013-03-24 13:47:00,21.4,-8.1,31.53,NW,315,11.0,19.0,26,0.00,,,0.00,meteohub,2013-03-24 19:47:00,
2013-03-24 13:52:00,22.6,-7.1,31.52,NW,315,5.0,19.0,26,0.00,,,0.00,meteohub,2013-03-24 19:52:00,
2013-03-24 13:57:00,23.5,-7.1,31.52,NW,315,12.0,13.0,25,0.00,,,0.00,meteohub,2013-03-24 19:57:00,
2013-03-24 14:02:00,22.5,-8.1,31.52,NW,315,12.0,12.0,25,0.00,,,0.00,meteohub,2013-03-24 20:02:00,
2013-03-24 14:07:00,22.5,-8.1,31.53,NW,315,12.0,12.0,25,0.00,,,0.00,meteohub,2013-03-24 20:07:00,
2013-03-24 14:12:00,20.8,-8.0,31.52,NW,315,8.0,12.0,27,0.00,,,0.00,meteohub,2013-03-24 20:12:00,
2013-03-24 14:17:00,23.0,-6.9,31.52,WNW,293,6.0,12.0,26,0.00,,,0.00,meteohub,2013-03-24 20:17:00,
2013-03-24 14:22:00,23.5,-5.6,31.52,NW,315,6.0,12.0,27,0.00,,,0.00,meteohub,2013-03-24 20:22:00,
2013-03-24 14:27:00,23.9,-3.8,31.52,SW,225,3.0,10.0,29,0.00,,,0.00,meteohub,2013-03-24 20:27:00,
2013-03-24 14:32:00,21.9,-4.7,31.52,North,0,8.0,10.0,30,0.00,,,0.00,meteohub,2013-03-24 20:32:00,
2013-03-24 14:37:00,19.8,-6.0,31.53,West,270,5.0,8.0,31,0.00,,,0.00,meteohub,2013-03-24 20:37:00,
2013-03-24 14:43:00,19.4,-4.4,31.53,NW,315,4.0,8.0,34,0.00,,,0.00,meteohub,2013-03-24 20:43:00,
2013-03-24 14:49:00,20.3,-2.4,31.52,West,270,4.0,8.0,36,0.00,,,0.00,meteohub,2013-03-24 20:49:00,
2013-03-24 14:55:00,22.1,-0.2,31.52,West,270,6.0,9.0,37,0.00,,,0.00,meteohub,2013-03-24 20:55:00,
2013-03-24 15:01:00,20.3,-1.3,31.52,West,270,4.0,13.0,38,0.00,,,0.00,meteohub,2013-03-24 21:01:00,
2013-03-24 15:06:00,19.0,-3.5,31.52,North,0,2.0,13.0,36,0.00,,,0.00,meteohub,2013-03-24 21:06:00,
2013-03-24 15:12:00,18.1,-3.3,31.52,NW,315,4.0,13.0,38,0.00,,,0.00,meteohub,2013-03-24 21:12:00,
2013-03-24 15:17:00,18.1,-1.7,31.53,North,0,3.0,8.0,41,0.00,,,0.00,meteohub,2013-03-24 21:17:00,
2013-03-24 15:22:00,19.2,-0.6,31.52,NW,315,3.0,8.0,41,0.00,,,0.00,meteohub,2013-03-24 21:22:00,
2013-03-24 15:27:00,19.4,-0.4,31.52,West,270,4.0,6.0,41,0.00,,,0.00,meteohub,2013-03-24 21:27:00,
2013-03-24 15:32:00,20.3,-0.8,31.53,NW,315,6.0,7.0,39,0.00,,,0.00,meteohub,2013-03-24 21:32:00,
2013-03-24 15:37:00,22.3,0.5,31.52,NW,315,9.0,9.0,38,0.00,,,0.00,meteohub,2013-03-24 21:37:00,
2013-03-24 15:42:00,21.9,-4.2,31.53,WNW,293,9.0,9.0,31,0.00,,,0.00,meteohub,2013-03-24 21:42:00,
2013-03-24 15:47:00,21.0,-6.3,31.53,NW,315,11.0,12.0,29,0.00,,,0.00,meteohub,2013-03-24 21:47:00,
2013-03-24 15:52:00,19.9,-6.5,31.53,North,0,3.0,12.0,30,0.00,,,0.00,meteohub,2013-03-24 21:52:00,
2013-03-24 15:57:00,18.9,-9.6,31.53,North,0,4.0,12.0,27,0.00,,,0.00,meteohub,2013-03-24 21:57:00,
2013-03-24 16:03:00,18.3,-8.7,31.53,North,0,6.0,12.0,29,0.00,,,0.00,meteohub,2013-03-24 22:03:00,
2013-03-24 16:08:00,17.6,-11.4,31.53,NW,315,6.0,12.0,26,0.00,,,0.00,meteohub,2013-03-24 22:08:00,
2013-03-24 16:14:00,18.1,-11.7,31.53,West,270,5.0,8.0,25,0.00,,,0.00,meteohub,2013-03-24 22:14:00,
2013-03-24 16:19:00,18.1,-11.7,31.53,West,270,17.0,17.0,25,0.00,,,0.00,meteohub,2013-03-24 22:19:00,
2013-03-24 16:25:00,17.4,-10.1,31.54,NW,315,5.0,17.0,28,0.00,,,0.00,meteohub,2013-03-24 22:25:00,
2013-03-24 16:31:00,16.5,-8.1,31.54,West,270,11.0,17.0,32,0.00,,,0.00,meteohub,2013-03-24 22:31:00,
2013-03-24 16:37:00,15.4,-9.2,31.54,SW,225,4.0,11.0,32,0.00,,,0.00,meteohub,2013-03-24 22:37:00,
2013-03-24 16:42:00,15.4,-8.5,31.55,NW,315,7.0,11.0,33,0.00,,,0.00,meteohub,2013-03-24 22:42:00,
2013-03-24 16:48:00,14.5,-8.7,31.55,West,270,7.0,11.0,34,0.00,,,0.00,meteohub,2013-03-24 22:48:00,
2013-03-24 16:53:00,13.6,-7.8,31.55,NW,315,13.0,15.0,37,0.00,,,0.00,meteohub,2013-03-24 22:53:00,
2013-03-24 16:59:00,12.9,-4.9,31.55,West,270,10.0,15.0,44,0.00,,,0.00,meteohub,2013-03-24 22:59:00,
2013-03-24 17:04:00,11.8,-3.3,31.55,SW,225,6.0,15.0,50,0.00,,,0.00,meteohub,2013-03-24 23:04:00,
2013-03-24 17:10:00,11.7,-1.3,31.56,WSW,248,7.0,14.0,55,0.00,,,0.00,meteohub,2013-03-24 23:10:00,
2013-03-24 17:15:00,12.2,-0.9,31.56,North,0,2.0,14.0,55,0.00,,,0.00,meteohub,2013-03-24 23:15:00,
2013-03-24 17:20:00,13.5,0.3,31.56,West,270,2.0,14.0,55,0.00,,,0.00,meteohub,2013-03-24 23:20:00,
2013-03-24 17:25:00,13.8,0.7,31.56,SE,135,0.0,8.0,55,0.00,,,0.00,meteohub,2013-03-24 23:25:00,
2013-03-24 17:30:00,13.6,0.1,31.56,NW,315,4.0,8.0,54,0.00,,,0.00,meteohub,2013-03-24 23:30:00,
2013-03-24 17:36:00,13.1,-2.0,31.56,NW,315,4.0,9.0,50,0.00,,,0.00,meteohub,2013-03-24 23:36:00,
2013-03-24 17:42:00,12.4,-4.5,31.56,North,0,8.0,9.0,46,0.00,,,0.00,meteohub,2013-03-24 23:42:00,
2013-03-24 17:47:00,11.5,-5.3,31.56,West,270,8.0,11.0,46,0.00,,,0.00,meteohub,2013-03-24 23:47:00,
2013-03-24 17:52:00,11.3,-6.0,31.56,NW,315,6.0,17.0,45,0.00,,,0.00,meteohub,2013-03-24 23:52:00,
2013-03-24 17:57:00,11.3,-5.4,31.56,NW,315,6.0,17.0,46,0.00,,,0.00,meteohub,2013-03-24 23:57:00,
2013-03-24 18:02:00,11.1,-5.3,31.57,North,0,2.0,12.0,47,0.00,,,0.00,meteohub,2013-03-25 00:02:00,
2013-03-24 18:08:00,10.8,-4.7,31.57,NW,315,8.0,12.0,49,0.00,,,0.00,meteohub,2013-03-25 00:08:00,
2013-03-24 18:13:00,10.8,-4.2,31.57,NW,315,4.0,8.0,50,0.00,,,0.00,meteohub,2013-03-25 00:13:00,
2013-03-24 18:19:00,10.6,-4.0,31.57,North,0,4.0,8.0,51,0.00,,,0.00,meteohub,2013-03-25 00:19:00,
2013-03-24 18:25:00,10.2,-5.6,31.57,NW,315,3.0,8.0,48,0.00,,,0.00,meteohub,2013-03-25 00:25:00,
2013-03-24 18:30:00,9.7,-5.3,31.57,West,270,4.0,7.0,50,0.00,,,0.00,meteohub,2013-03-25 00:30:00,
2013-03-24 18:36:00,9.5,-4.9,31.57,West,270,4.0,7.0,51,0.00,,,0.00,meteohub,2013-03-25 00:36:00,
2013-03-24 18:41:00,9.1,-4.5,31.57,SW,225,2.0,8.0,53,0.00,,,0.00,meteohub,2013-03-25 00:41:00,
2013-03-24 18:47:00,9.1,-4.5,31.58,NW,315,4.0,8.0,53,0.00,,,0.00,meteohub,2013-03-25 00:47:00,
2013-03-24 18:52:00,9.1,-4.9,31.58,SW,225,4.0,8.0,52,0.00,,,0.00,meteohub,2013-03-25 00:52:00,
2013-03-24 18:57:00,9.0,-5.4,31.58,West,270,6.0,8.0,51,0.00,,,0.00,meteohub,2013-03-25 00:57:00,
2013-03-24 19:02:00,8.8,-5.3,31.59,NNW,338,4.0,10.0,52,0.00,,,0.00,meteohub,2013-03-25 01:02:00,
2013-03-24 19:07:00,8.6,-4.7,31.59,West,270,2.0,10.0,54,0.00,,,0.00,meteohub,2013-03-25 01:07:00,
2013-03-24 19:13:00,8.1,-4.4,31.59,WSW,248,4.0,10.0,56,0.00,,,0.00,meteohub,2013-03-25 01:13:00,
2013-03-24 19:18:00,7.7,-4.7,31.59,NE,45,0.0,5.0,56,0.00,,,0.00,meteohub,2013-03-25 01:18:00,
2013-03-24 19:23:00,7.5,-4.5,31.59,North,0,4.0,4.0,57,0.00,,,0.00,meteohub,2013-03-25 01:23:00,
2013-03-24 19:29:00,7.3,-4.7,31.59,NW,315,2.0,4.0,57,0.00,,,0.00,meteohub,2013-03-25 01:29:00,
2013-03-24 19:34:00,7.2,-4.5,31.59,SW,225,2.0,4.0,58,0.00,,,0.00,meteohub,2013-03-25 01:34:00,
2013-03-24 19:40:00,7.0,-4.7,31.59,NW,315,2.0,4.0,58,0.00,,,0.00,meteohub,2013-03-25 01:40:00,
2013-03-24 19:46:00,7.0,-4.7,31.59,North,0,2.0,2.0,58,0.00,,,0.00,meteohub,2013-03-25 01:46:00,
2013-03-24 19:51:00,7.0,-4.4,31.60,NW,315,0.0,4.0,59,0.00,,,0.00,meteohub,2013-03-25 01:51:00,
2013-03-24 19:56:00,6.8,-4.5,31.60,SW,225,3.0,4.0,59,0.00,,,0.00,meteohub,2013-03-25 01:56:00,
2013-03-24 20:02:00,6.8,-4.5,31.60,North,0,1.0,4.0,59,0.00,,,0.00,meteohub,2013-03-25 02:02:00,
2013-03-24 20:07:00,6.8,-4.5,31.60,North,0,1.0,4.0,59,0.00,,,0.00,meteohub,2013-03-25 02:07:00,
2013-03-24 20:12:00,6.8,-4.5,31.60,West,270,0.0,3.0,59,0.00,,,0.00,meteohub,2013-03-25 02:12:00,
2013-03-24 20:17:00,6.8,-4.2,31.60,South,180,0.0,1.0,60,0.00,,,0.00,meteohub,2013-03-25 02:17:00,
2013-03-24 20:22:00,6.6,-4.4,31.60,West,270,2.0,2.0,60,0.00,,,0.00,meteohub,2013-03-25 02:22:00,
2013-03-24 20:27:00,6.6,-4.4,31.60,NW,315,0.0,3.0,60,0.00,,,0.00,meteohub,2013-03-25 02:27:00,
2013-03-24 20:32:00,6.6,-4.4,31.60,West,270,0.0,3.0,60,0.00,,,0.00,meteohub,2013-03-25 02:32:00,
2013-03-24 20:38:00,6.4,-4.5,31.60,West,270,1.0,3.0,60,0.00,,,0.00,meteohub,2013-03-25 02:38:00,
2013-03-24 20:43:00,6.4,-4.5,31.61,West,270,1.0,2.0,60,0.00,,,0.00,meteohub,2013-03-25 02:43:00,
2013-03-24 20:49:00,6.3,-4.7,31.60,NW,315,0.0,2.0,60,0.00,,,0.00,meteohub,2013-03-25 02:49:00,
2013-03-24 20:55:00,6.1,-5.3,31.61,NE,45,0.0,2.0,59,0.00,,,0.00,meteohub,2013-03-25 02:55:00,
2013-03-24 21:01:00,5.7,-5.4,31.61,NW,315,0.0,1.0,59,0.00,,,0.00,meteohub,2013-03-25 03:01:00,
2013-03-24 21:06:00,5.5,-6.0,31.61,NW,315,0.0,0.0,58,0.00,,,0.00,meteohub,2013-03-25 03:06:00,
2013-03-24 21:11:00,5.0,-6.5,31.61,West,270,0.0,0.0,58,0.00,,,0.00,meteohub,2013-03-25 03:11:00,
2013-03-24 21:17:00,4.1,-7.4,31.61,SW,225,0.0,0.0,58,0.00,,,0.00,meteohub,2013-03-25 03:17:00,
2013-03-24 21:22:00,3.4,-8.1,31.61,SW,225,0.0,0.0,58,0.00,,,0.00,meteohub,2013-03-25 03:22:00,
2013-03-24 21:27:00,2.7,-8.3,31.61,SW,225,0.0,0.0,59,0.00,,,0.00,meteohub,2013-03-25 03:27:00,
2013-03-24 21:32:00,1.9,-9.4,31.61,NW,315,0.0,0.0,58,0.00,,,0.00,meteohub,2013-03-25 03:32:00,
2013-03-24 21:37:00,1.6,-9.8,31.61,NW,315,0.0,0.0,58,0.00,,,0.00,meteohub,2013-03-25 03:37:00,
2013-03-24 21:42:00,1.2,-11.6,31.62,West,270,0.0,0.0,54,0.00,,,0.00,meteohub,2013-03-25 03:42:00,
2013-03-24 21:47:00,0.9,-12.3,31.62,NW,315,0.0,0.0,53,0.00,,,0.00,meteohub,2013-03-25 03:47:00,
2013-03-24 21:52:00,0.5,-12.6,31.61,NW,315,0.0,0.0,53,0.00,,,0.00,meteohub,2013-03-25 03:52:00,
2013-03-24 21:57:00,0.1,-13.0,31.62,NE,45,0.0,0.0,53,0.00,,,0.00,meteohub,2013-03-25 03:57:00,
2013-03-24 22:00:00,0.0,-13.5,31.62,West,270,0.0,0.0,52,0.00,,,0.00,meteohub,2013-03-25 04:00:00,
2013-03-24 22:01:00,0.0,-13.5,31.62,West,270,0.0,0.0,52,0.00,,,0.00,meteohub,2013-03-25 04:01:00,
2013-03-24 22:02:00,0.0,-13.5,31.62,West,270,0.0,0.0,52,0.00,,,0.00,meteohub,2013-03-25 04:02:00,
2013-03-24 22:05:00,0.0,-13.5,31.62,West,270,0.0,0.0,52,0.00,,,0.00,meteohub,2013-03-25 04:05:00,
2013-03-24 22:11:00,-0.6,-13.5,31.62,SW,225,0.0,0.0,53,0.00,,,0.00,meteohub,2013-03-25 04:11:00,
2013-03-24 22:16:00,-1.1,-14.1,31.62,SW,225,0.0,0.0,53,0.00,,,0.00,meteohub,2013-03-25 04:16:00,
2013-03-24 22:22:00,-1.5,-14.4,31.62,West,270,0.0,0.0,53,0.00,,,0.00,meteohub,2013-03-25 04:22:00,
2013-03-24 22:27:00,-1.5,-14.1,31.62,West,270,0.0,0.0,54,0.00,,,0.00,meteohub,2013-03-25 04:27:00,
2013-03-24 22:32:00,-1.7,-14.3,31.62,West,270,0.0,0.0,54,0.00,,,0.00,meteohub,2013-03-25 04:32:00,
2013-03-24 22:37:00,-1.7,-14.3,31.62,West,270,0.0,0.0,54,0.00,,,0.00,meteohub,2013-03-25 04:37:00,
2013-03-24 22:42:00,-1.7,-14.3,31.62,SW,225,0.0,0.0,54,0.00,,,0.00,meteohub,2013-03-25 04:42:00,
2013-03-24 22:47:00,-1.7,-14.3,31.62,West,270,0.0,0.0,54,0.00,,,0.00,meteohub,2013-03-25 04:47:00,
2013-03-24 22:52:00,-1.7,-14.3,31.62,SW,225,0.0,0.0,54,0.00,,,0.00,meteohub,2013-03-25 04:52:00,
2013-03-24 22:57:00,-1.7,-13.9,31.62,SW,225,0.0,0.0,55,0.00,,,0.00,meteohub,2013-03-25 04:57:00,
2013-03-24 23:02:00,-1.7,-13.9,31.62,West,270,0.0,0.0,55,0.00,,,0.00,meteohub,2013-03-25 05:02:00,
2013-03-24 23:07:00,-1.7,-13.9,31.62,West,270,0.0,0.0,55,0.00,,,0.00,meteohub,2013-03-25 05:07:00,
2013-03-24 23:12:00,-1.8,-14.1,31.62,SW,225,3.0,3.0,55,0.00,,,0.00,meteohub,2013-03-25 05:12:00,
2013-03-24 23:17:00,-1.7,-13.9,31.63,SW,225,0.0,3.0,55,0.00,,,0.00,meteohub,2013-03-25 05:17:00,
2013-03-24 23:22:00,-1.8,-14.4,31.63,SW,225,2.0,3.0,54,0.00,,,0.00,meteohub,2013-03-25 05:22:00,
2013-03-24 23:27:00,-1.3,-13.5,31.62,SW,225,0.0,3.0,55,0.00,,,0.00,meteohub,2013-03-25 05:27:00,
2013-03-24 23:32:00,-1.5,-14.1,31.62,SW,225,0.0,3.0,54,0.00,,,0.00,meteohub,2013-03-25 05:32:00,
2013-03-24 23:37:00,-1.7,-14.3,31.63,SW,225,0.0,4.0,54,0.00,,,0.00,meteohub,2013-03-25 05:37:00,
2013-03-24 23:42:00,-2.0,-14.6,31.63,WSW,248,2.0,4.0,54,0.00,,,0.00,meteohub,2013-03-25 05:42:00,
2013-03-24 23:47:00,-2.0,-14.6,31.63,West,270,3.0,3.0,54,0.00,,,0.00,meteohub,2013-03-25 05:47:00,
2013-03-24 23:52:00,-2.0,-14.6,31.63,West,270,0.0,3.0,54,0.00,,,0.00,meteohub,2013-03-25 05:52:00,
2013-03-24 23:57:00,-2.2,-14.8,31.63,SW,225,2.0,3.0,54,0.00,,,0.00,meteohub,2013-03-25 05:57:00,